Time,TemperatureF,DewpointF,PressureIn,WindDirection,WindDirectionDegrees,WindSpeedMPH,WindSpeedGustMPH,Humidity,HourlyPrecipIn,Conditions,Clouds,dailyrainin,SoftwareType,DateUTC
2013-08-26 00:12:00,60.8,60.0,30.28,West,259,0.0,1.0,96,0.00,,,0.00,weatherlink.com 1.10,2013-08-26 04:12:00,
2013-08-26 00:27:00,60.7,60.0,30.27,WSW,257,0.0,0.0,96,0.00,,,0.00,weatherlink.com 1.10,2013-08-26 04:27:00,
2013-08-26 00:42:00,60.2,59.0,30.27,West,259,0.0,1.0,96,0.00,,,0.00,weatherlink.com 1.10,2013-08-26 04:42:00,
2013-08-26 00:57:00,60.1,59.0,30.27,West,259,0.0,0.0,96,0.00,,,0.00,weatherlink.com 1.10,2013-08-26 04:57:00,
2013-08-26 01:12:00,59.9,59.0,30.27,West,259,0.0,0.0,96,0.00,,,0.00,weatherlink.com 1.10,2013-08-26 05:12:00,
2013-08-26 01:27:00,59.7,59.0,30.26,West,259,0.0,0.0,97,0.00,,,0.00,weatherlink.com 1.10,2013-08-26 05:27:00,
2013-08-26 01:42:00,59.5,58.0,30.26,West,259,0.0,0.0,96,0.00,,,0.00,weatherlink.com 1.10,2013-08-26 05:42:00,
2013-08-26 01:57:00,59.2,58.0,30.26,West,259,0.0,0.0,96,0.00,,,0.00,weatherlink.com 1.10,2013-08-26 05:57:00,
2013-08-26 02:12:00,59.1,58.0,30.26,West,259,0.0,1.0,97,0.00,,,0.00,weatherlink.com 1.10,2013-08-26 06:12:00,
2013-08-26 02:27:00,59.0,58.0,30.25,West,263,0.0,0.0,97,0.00,,,0.00,weatherlink.com 1.10,2013-08-26 06:27:00,
2013-08-26 02:42:00,58.8,58.0,30.25,West,263,0.0,0.0,97,0.00,,,0.00,weatherlink.com 1.10,2013-08-26 06:42:00,
2013-08-26 02:57:00,58.8,58.0,30.25,West,263,0.0,0.0,97,0.00,,,0.00,weatherlink.com 1.10,2013-08-26 06:57:00,
2013-08-26 03:12:00,58.7,58.0,30.25,West,263,0.0,0.0,97,0.00,,,0.00,weatherlink.com 1.10,2013-08-26 07:12:00,
2013-08-26 03:27:00,58.4,58.0,30.25,West,263,0.0,1.0,97,0.00,,,0.00,weatherlink.com 1.10,2013-08-26 07:27:00,
2013-08-26 03:42:00,58.4,58.0,30.25,West,263,0.0,0.0,97,0.00,,,0.00,weatherlink.com 1.10,2013-08-26 07:42:00,
2013-08-26 03:57:00,58.3,58.0,30.24,West,263,0.0,0.0,97,0.00,,,0.00,weatherlink.com 1.10,2013-08-26 07:57:00,
2013-08-26 04:12:00,58.2,57.0,30.24,West,263,0.0,1.0,97,0.00,,,0.00,weatherlink.com 1.10,2013-08-26 08:12:00,
2013-08-26 04:27:00,58.2,57.0,30.24,West,263,0.0,0.0,97,0.00,,,0.00,weatherlink.com 1.10,2013-08-26 08:27:00,
2013-08-26 04:42:00,58.0,57.0,30.23,West,263,0.0,0.0,97,0.00,,,0.00,weatherlink.com 1.10,2013-08-26 08:42:00,
2013-08-26 04:57:00,58.0,57.0,30.23,West,263,0.0,0.0,97,0.00,,,0.00,weatherlink.com 1.10,2013-08-26 08:57:00,
2013-08-26 05:12:00,58.0,57.0,30.23,West,263,0.0,0.0,97,0.00,,,0.00,weatherlink.com 1.10,2013-08-26 09:12:00,
2013-08-26 05:28:00,57.9,57.0,30.23,West,263,0.0,0.0,97,0.00,,,0.00,weatherlink.com 1.10,2013-08-26 09:28:00,
2013-08-26 05:44:00,57.9,57.0,30.23,West,263,0.0,0.0,98,0.00,,,0.00,weatherlink.com 1.10,2013-08-26 09:44:00,
2013-08-26 05:58:00,57.6,57.0,30.23,West,263,0.0,0.0,97,0.00,,,0.00,weatherlink.com 1.10,2013-08-26 09:58:00,
2013-08-26 06:13:00,57.5,57.0,30.23,West,264,0.0,0.0,98,0.00,,,0.00,weatherlink.com 1.10,2013-08-26 10:13:00,
2013-08-26 06:28:00,57.4,57.0,30.23,West,263,0.0,1.0,97,0.00,,,0.00,weatherlink.com 1.10,2013-08-26 10:28:00,
2013-08-26 06:43:00,57.1,56.0,30.24,NE,49,0.0,1.0,97,0.00,,,0.00,weatherlink.com 1.10,2013-08-26 10:43:00,
2013-08-26 06:58:00,57.1,57.0,30.24,NE,49,0.0,0.0,98,0.00,,,0.00,weatherlink.com 1.10,2013-08-26 10:58:00,
2013-08-26 07:13:00,57.2,57.0,30.25,NE,49,0.0,0.0,98,0.00,,,0.00,weatherlink.com 1.10,2013-08-26 11:13:00,
2013-08-26 07:28:00,57.6,57.0,30.26,NE,49,0.0,0.0,98,0.00,,,0.00,weatherlink.com 1.10,2013-08-26 11:28:00,
2013-08-26 07:43:00,58.0,58.0,30.26,NNE,12,0.0,0.0,98,0.00,,,0.00,weatherlink.com 1.10,2013-08-26 11:43:00,
2013-08-26 07:58:00,59.1,59.0,30.26,NNE,12,0.0,0.0,98,0.00,,,0.00,weatherlink.com 1.10,2013-08-26 11:58:00,
2013-08-26 08:13:00,60.6,60.0,30.26,NNE,12,0.0,0.0,99,0.00,,,0.00,weatherlink.com 1.10,2013-08-26 12:13:00,
2013-08-26 08:28:00,63.2,62.0,30.26,WSW,257,1.0,1.0,97,0.00,,,0.00,weatherlink.com 1.10,2013-08-26 12:28:00,
2013-08-26 08:43:00,64.7,63.0,30.26,WSW,242,0.0,2.0,93,0.00,,,0.00,weatherlink.com 1.10,2013-08-26 12:43:00,
2013-08-26 08:58:00,66.3,63.0,30.26,WSW,257,0.0,1.0,90,0.00,,,0.00,weatherlink.com 1.10,2013-08-26 12:58:00,
2013-08-26 09:13:00,68.3,64.0,30.25,ESE,105,1.0,2.0,86,0.00,,,0.00,weatherlink.com 1.10,2013-08-26 13:13:00,
2013-08-26 09:28:00,69.3,63.0,30.26,SSE,159,1.0,2.0,80,0.00,,,0.00,weatherlink.com 1.10,2013-08-26 13:28:00,
2013-08-26 09:43:00,70.2,63.0,30.26,SSE,158,0.0,3.0,78,0.00,,,0.00,weatherlink.com 1.10,2013-08-26 13:43:00,
2013-08-26 09:58:00,71.1,64.0,30.25,SSE,159,0.0,2.0,78,0.00,,,0.00,weatherlink.com 1.10,2013-08-26 13:58:00,
2013-08-26 10:13:00,72.2,65.0,30.25,SSE,148,2.0,2.0,77,0.00,,,0.00,weatherlink.com 1.10,2013-08-26 14:13:00,
2013-08-26 10:28:00,72.6,65.0,30.25,SE,141,2.0,4.0,77,0.00,,,0.00,weatherlink.com 1.10,2013-08-26 14:28:00,
2013-08-26 10:43:00,73.8,65.0,30.24,SE,146,0.0,4.0,75,0.00,,,0.00,weatherlink.com 1.10,2013-08-26 14:43:00,
2013-08-26 10:58:00,74.4,66.0,30.24,South,176,1.0,3.0,76,0.00,,,0.00,weatherlink.com 1.10,2013-08-26 14:58:00,
2013-08-26 11:13:00,75.3,66.0,30.24,SE,142,2.0,5.0,72,0.00,,,0.00,weatherlink.com 1.10,2013-08-26 15:13:00,
2013-08-26 11:28:00,76.3,66.0,30.23,SW,226,0.0,3.0,70,0.00,,,0.00,weatherlink.com 1.10,2013-08-26 15:28:00,
2013-08-26 11:43:00,77.2,65.0,30.23,SSE,150,1.0,5.0,65,0.00,,,0.00,weatherlink.com 1.10,2013-08-26 15:43:00,
2013-08-26 11:59:00,78.6,66.0,30.23,SSE,165,2.0,3.0,66,0.00,,,0.00,weatherlink.com 1.10,2013-08-26 15:59:00,
2013-08-26 12:14:00,79.4,67.0,30.22,SW,218,0.0,2.0,65,0.00,,,0.00,weatherlink.com 1.10,2013-08-26 16:14:00,
2013-08-26 12:29:00,79.9,66.0,30.21,NW,315,1.0,5.0,63,0.00,,,0.00,weatherlink.com 1.10,2013-08-26 16:29:00,
2013-08-26 12:44:00,80.8,67.0,30.21,WSW,242,1.0,4.0,63,0.00,,,0.00,weatherlink.com 1.10,2013-08-26 16:44:00,
2013-08-26 12:59:00,80.2,67.0,30.20,WNW,282,2.0,2.0,65,0.00,,,0.00,weatherlink.com 1.10,2013-08-26 16:59:00,
2013-08-26 13:14:00,79.4,67.0,30.20,SW,221,4.0,4.0,66,0.00,,,0.00,weatherlink.com 1.10,2013-08-26 17:14:00,
2013-08-26 13:29:00,78.8,66.0,30.19,SW,225,1.0,4.0,65,0.00,,,0.00,weatherlink.com 1.10,2013-08-26 17:29:00,
2013-08-26 13:44:00,78.6,67.0,30.18,SW,225,2.0,6.0,67,0.00,,,0.00,weatherlink.com 1.10,2013-08-26 17:44:00,
2013-08-26 13:59:00,78.9,66.0,30.18,WNW,293,2.0,6.0,65,0.00,,,0.00,weatherlink.com 1.10,2013-08-26 17:59:00,
2013-08-26 14:14:00,78.7,65.0,30.17,SW,226,0.0,4.0,64,0.00,,,0.00,weatherlink.com 1.10,2013-08-26 18:14:00,
2013-08-26 14:29:00,79.5,68.0,30.16,WNW,299,1.0,2.0,68,0.00,,,0.00,weatherlink.com 1.10,2013-08-26 18:29:00,
2013-08-26 14:44:00,79.6,68.0,30.15,WSW,237,1.0,4.0,67,0.00,,,0.00,weatherlink.com 1.10,2013-08-26 18:44:00,
2013-08-26 14:59:00,79.8,68.0,30.14,WNW,292,0.0,8.0,67,0.00,,,0.00,weatherlink.com 1.10,2013-08-26 18:59:00,
2013-08-26 15:14:00,80.1,68.0,30.13,SW,225,2.0,5.0,66,0.00,,,0.00,weatherlink.com 1.10,2013-08-26 19:14:00,
2013-08-26 15:29:00,79.9,68.0,30.12,ESE,120,5.0,8.0,67,0.00,,,0.00,weatherlink.com 1.10,2013-08-26 19:29:00,
2013-08-26 15:44:00,80.1,68.0,30.12,West,259,0.0,6.0,67,0.00,,,0.00,weatherlink.com 1.10,2013-08-26 19:44:00,
2013-08-26 15:59:00,80.4,67.0,30.12,NNW,330,1.0,6.0,64,0.00,,,0.00,weatherlink.com 1.10,2013-08-26 19:59:00,
2013-08-26 16:14:00,80.1,67.0,30.11,SSW,203,0.0,5.0,65,0.00,,,0.00,weatherlink.com 1.10,2013-08-26 20:14:00,
2013-08-26 16:29:00,80.2,67.0,30.11,West,278,0.0,6.0,65,0.00,,,0.00,weatherlink.com 1.10,2013-08-26 20:29:00,
2013-08-26 16:44:00,80.3,67.0,30.09,WSW,246,1.0,3.0,64,0.00,,,0.00,weatherlink.com 1.10,2013-08-26 20:44:00,
2013-08-26 16:59:00,80.2,68.0,30.09,NW,314,1.0,1.0,66,0.00,,,0.00,weatherlink.com 1.10,2013-08-26 20:59:00,
2013-08-26 17:14:00,80.1,68.0,30.08,WNW,286,1.0,3.0,67,0.00,,,0.00,weatherlink.com 1.10,2013-08-26 21:14:00,
2013-08-26 17:29:00,79.6,67.0,30.08,NW,305,1.0,3.0,66,0.00,,,0.00,weatherlink.com 1.10,2013-08-26 21:29:00,
2013-08-26 17:44:00,79.1,68.0,30.07,East,98,0.0,2.0,69,0.00,,,0.00,weatherlink.com 1.10,2013-08-26 21:44:00,
2013-08-26 17:59:00,79.2,69.0,30.07,WNW,288,0.0,2.0,72,0.00,,,0.00,weatherlink.com 1.10,2013-08-26 21:59:00,
2013-08-26 18:14:00,79.0,68.0,30.07,NW,323,1.0,2.0,70,0.00,,,0.00,weatherlink.com 1.10,2013-08-26 22:14:00,
2013-08-26 18:29:00,77.7,70.0,30.07,West,271,0.0,1.0,77,0.00,,,0.00,weatherlink.com 1.10,2013-08-26 22:29:00,
2013-08-26 18:44:00,76.3,70.0,30.07,West,264,0.0,1.0,81,0.00,,,0.00,weatherlink.com 1.10,2013-08-26 22:44:00,
2013-08-26 18:59:00,75.3,70.0,30.07,WSW,257,0.0,1.0,83,0.00,,,0.00,weatherlink.com 1.10,2013-08-26 22:59:00,
2013-08-26 19:14:00,75.0,70.0,30.07,WSW,257,0.0,1.0,83,0.00,,,0.00,weatherlink.com 1.10,2013-08-26 23:14:00,
2013-08-26 19:29:00,74.4,69.0,30.07,WSW,257,0.0,1.0,83,0.00,,,0.00,weatherlink.com 1.10,2013-08-26 23:29:00,
2013-08-26 19:44:00,73.7,69.0,30.07,WSW,257,0.0,0.0,84,0.00,,,0.00,weatherlink.com 1.10,2013-08-26 23:44:00,
2013-08-26 19:59:00,72.8,68.0,30.08,WSW,257,0.0,1.0,84,0.00,,,0.00,weatherlink.com 1.10,2013-08-26 23:59:00,
2013-08-26 20:14:00,72.0,68.0,30.08,WSW,257,0.0,0.0,86,0.00,,,0.00,weatherlink.com 1.10,2013-08-27 00:14:00,
2013-08-26 20:29:00,71.2,67.0,30.08,WSW,257,0.0,0.0,87,0.00,,,0.00,weatherlink.com 1.10,2013-08-27 00:29:00,
2013-08-26 20:44:00,70.6,67.0,30.08,West,262,0.0,1.0,89,0.00,,,0.00,weatherlink.com 1.10,2013-08-27 00:44:00,
2013-08-26 20:59:00,70.1,67.0,30.09,West,260,0.0,0.0,89,0.00,,,0.00,weatherlink.com 1.10,2013-08-27 00:59:00,
2013-08-26 21:14:00,69.6,67.0,30.09,West,260,0.0,0.0,90,0.00,,,0.00,weatherlink.com 1.10,2013-08-27 01:14:00,
2013-08-26 21:30:00,68.9,66.0,30.09,West,260,0.0,0.0,91,0.00,,,0.00,weatherlink.com 1.10,2013-08-27 01:30:00,
2013-08-26 21:45:00,68.4,66.0,30.09,West,262,0.0,1.0,92,0.00,,,0.00,weatherlink.com 1.10,2013-08-27 01:45:00,
2013-08-26 22:00:00,67.9,66.0,30.08,West,262,0.0,0.0,93,0.00,,,0.00,weatherlink.com 1.10,2013-08-27 02:00:00,
2013-08-26 22:15:00,67.4,65.0,30.08,West,261,1.0,1.0,93,0.00,,,0.00,weatherlink.com 1.10,2013-08-27 02:15:00,
2013-08-26 22:30:00,67.0,65.0,30.08,West,262,0.0,1.0,94,0.00,,,0.00,weatherlink.com 1.10,2013-08-27 02:30:00,
2013-08-26 22:45:00,66.7,65.0,30.08,West,261,0.0,1.0,95,0.00,,,0.00,weatherlink.com 1.10,2013-08-27 02:45:00,
2013-08-26 23:00:00,66.5,65.0,30.07,West,261,0.0,0.0,95,0.00,,,0.00,weatherlink.com 1.10,2013-08-27 03:00:00,
2013-08-26 23:15:00,66.3,65.0,30.07,West,261,0.0,0.0,95,0.00,,,0.00,weatherlink.com 1.10,2013-08-27 03:15:00,
2013-08-26 23:30:00,66.2,65.0,30.07,West,262,0.0,0.0,96,0.00,,,0.00,weatherlink.com 1.10,2013-08-27 03:30:00,
2013-08-26 23:45:00,66.1,65.0,30.07,West,261,0.0,1.0,96,0.00,,,0.00,weatherlink.com 1.10,2013-08-27 03:45:00,